RH
27 26 26 28 29 29 31 32 33 35 38 39 39 40 40 42 45 48 49 48 48 48 48 48 47 48 49 48 49 55 55 52 52 51 50 50 51 55 59 57 51 42
31 30 28 29 30 31 32 34 35 37 41 43 42 39 39 39 42 45 47 51 51 50 49 46 46 48 50 49 49 52 54 54 58 59 55 53 55 60 63 62 56 47
35 33 30 31 30 30 32 36 40 41 42 43 42 41 41 42 45 46 49 53 53 51 48 45 44 44 46 48 50 52 54 55 57 59 58 56 57 62 67 66 63 55
38 36 32 31 30 30 32 36 40 43 42 42 42 43 45 48 51 51 51 53 51 49 47 44 43 43 44 47 48 51 53 56 57 58 62 65 64 67 72 71 67 59
39 37 33 32 30 30 31 35 38 40 42 42 43 45 48 52 56 55 54 53 49 46 46 44 42 42 43 45 47 49 52 56 58 60 65 71 72 72 74 73 65 57
39 37 35 33 31 29 31 34 35 37 40 41 42 46 49 52 54 54 53 52 48 44 44 45 43 42 42 43 45 48 50 51 54 59 63 68 72 74 74 73 66 57
37 38 36 33 31 30 32 32 33 37 40 40 42 47 50 51 51 49 50 49 45 42 41 42 42 42 42 43 46 48 49 51 55 62 65 64 66 68 69 71 70 61
34 36 34 32 32 33 32 31 34 38 40 40 44 48 49 49 48 46 46 47 44 43 42 40 39 39 39 42 46 48 50 53 57 62 63 60 57 57 59 63 67 62
31 32 31 30 32 32 31 31 34 36 37 40 43 45 45 46 46 45 44 44 43 43 42 40 38 37 38 39 43 47 50 52 53 55 57 56 53 52 52 55 60 58
29 30 30 30 30 30 29 30 32 34 35 38 39 41 44 45 44 43 42 43 43 41 39 38 37 38 39 40 41 43 46 49 49 51 55 56 54 51 50 51 56 55
28 28 30 29 29 29 28 29 32 35 35 36 36 38 42 42 43 45 46 47 47 44 39 36 36 35 36 39 40 40 42 45 46 48 53 58 57 52 50 53 57 58
27 28 30 29 29 30 30 31 36 39 39 38 36 38 40 40 42 46 49 50 50 48 43 39 35 32 31 34 37 38 39 42 41 43 50 57 59 54 52 55 60 63
30 29 29 30 31 33 35 38 41 42 44 43 40 38 38 40 43 46 49 51 52 51 49 46 41 37 33 33 34 36 39 40 37 39 47 55 59 55 52 54 59 61
34 31 30 31 34 38 41 44 46 45 46 47 45 43 40 40 43 47 49 50 52 52 52 50 49 45 40 36 35 36 38 38 35 37 43 51 58 57 52 53 56 58
36 33 31 32 37 42 45 46 48 48 47 47 47 47 46 45 46 47 49 50 51 53 55 54 54 52 45 39 36 36 37 37 35 37 41 48 57 58 54 53 56 60
38 36 34 36 40 43 44 45 48 49 49 48 47 48 49 51 51 50 50 52 53 56 59 59 58 57 52 44 37 37 40 41 39 40 45 51 59 60 57 56 58 60
37 38 40 42 43 43 44 46 49 50 51 50 49 48 50 52 53 51 51 52 55 58 60 60 59 59 58 53 44 43 50 52 50 48 49 56 64 63 62 63 63 63
36 40 44 45 45 45 45 48 50 53 54 52 51 51 52 53 53 52 51 52 54 55 56 56 56 57 60 60 53 50 54 56 57 54 52 58 67 66 65 67 68 67
36 41 45 46 47 48 48 50 53 54 55 54 53 53 52 52 53 52 52 51 51 52 53 52 52 52 56 60 57 54 55 55 57 59 59 62 68 69 69 71 71 70
36 41 45 48 49 49 51 52 54 55 54 52 52 52 53 53 53 52 52 51 51 52 52 51 49 48 52 58 58 54 55 59 62 64 65 68 72 73 72 71 70 71
37 41 46 48 49 51 52 52 52 53 53 51 51 52 54 54 53 52 52 53 54 53 52 52 50 46 48 58 62 56 53 58 63 64 67 72 74 75 73 69 68 72
39 43 47 49 49 50 50 51 51 51 50 50 50 52 54 55 55 55 55 57 57 56 55 54 51 46 46 55 62 57 51 55 61 62 67 73 75 73 72 70 69 73
42 45 48 49 48 49 49 50 51 49 48 48 50 54 56 57 57 59 61 61 60 58 58 55 50 46 46 51 55 53 51 55 60 62 65 70 71 71 73 72 71 73
46 47 48 49 48 49 49 49 47 46 46 49 53 57 60 61 63 65 66 65 62 61 59 55 49 46 45 47 48 48 51 56 59 60 62 64 65 68 71 73 74 76
47 47 47 48 49 50 49 46 44 44 49 54 58 61 63 65 67 67 66 65 63 61 59 55 49 44 42 44 46 47 51 55 58 59 60 61 63 65 69 75 79 79
47 46 47 49 50 48 46 45 45 47 51 55 59 62 65 67 67 65 63 63 61 60 58 54 49 43 40 43 47 48 49 53 56 58 58 58 61 68 76 83 85 84